Theta_e
296 296 296 296 296 296 296 297 298 298 298 297 297 297 298 298 298 294 288 293 289 284 284 285 285 279 277 276 269 271 273 271 271 272 269 270 266 272 269 274 274 275 273 274 275 276 274 282 281 272 277 283 282 282
296 296 296 296 296 297 296 296 297 297 297 297 297 297 297 297 297 297 286 291 293 286 283 287 288 289 286 285 280 275 274 269 277 266 265 265 266 268 270 267 278 271 274 271 273 273 278 283 279 282 285 281 280 280
296 295 295 295 295 295 296 296 296 296 297 297 296 296 296 296 297 296 288 288 287 284 282 284 283 287 290 289 290 279 275 282 277 280 269 268 261 265 260 262 270 273 277 273 272 275 276 278 281 281 281 280 281 281
295 294 294 294 294 295 295 295 295 295 296 296 296 296 295 296 296 296 288 289 288 284 277 277 285 284 289 288 288 287 285 284 282 277 271 267 269 274 266 271 270 273 275 271 271 274 276 278 279 278 279 278 277 276
295 294 294 294 294 294 294 294 294 295 295 295 295 295 295 295 296 293 289 289 290 284 275 277 282 284 285 285 285 286 284 282 276 273 272 267 274 273 274 274 271 276 274 271 269 276 274 275 276 277 273 273 273 274
294 294 294 294 293 293 293 294 294 294 294 295 295 294 295 295 295 286 275 285 290 289 281 275 278 278 283 284 283 283 284 282 280 277 275 276 279 276 270 261 275 277 278 278 275 273 273 274 276 276 272 271 272 271
294 293 293 294 293 293 293 293 294 294 294 294 294 294 295 295 290 283 277 284 292 291 281 275 271 274 281 280 277 277 280 278 279 278 277 277 277 278 273 269 276 278 278 275 273 271 272 272 271 272 271 271 270 268
293 292 292 293 293 292 292 292 293 293 293 293 294 294 294 294 292 285 288 292 291 285 283 274 272 274 279 274 274 277 275 276 279 278 275 275 275 273 270 275 277 278 271 271 270 270 269 270 269 270 269 267 265 265
293 292 292 292 292 292 292 292 292 292 293 293 294 293 289 284 278 283 292 292 291 284 276 275 265 262 270 270 274 274 277 273 279 275 274 272 270 268 270 275 275 268 267 266 266 265 266 265 264 265 264 263 262 263
292 292 291 291 291 291 291 291 291 292 292 293 289 282 274 282 291 290 286 281 282 282 280 274 268 268 274 274 273 274 274 270 267 267 272 267 269 276 271 266 265 265 264 263 260 259 259 259 260 261 261 262 262 262
291 291 290 290 291 290 290 291 291 291 291 285 280 278 279 291 282 280 275 274 274 266 267 267 273 269 275 268 269 274 270 268 263 263 262 253 256 271 264 262 262 262 262 261 260 260 260 259 259 259 259 259 259 259
290 290 290 290 290 290 290 290 290 287 285 284 282 285 285 281 277 272 270 270 269 265 261 265 265 269 268 273 268 270 266 265 262 257 259 255 268 258 257 257 258 259 257 256 257 257 258 258 258 257 257 257 257 258
288 289 289 289 289 289 290 290 290 290 289 285 279 276 272 275 269 265 263 260 255 259 260 260 263 267 267 272 268 267 265 264 260 258 258 259 257 256 254 256 256 256 256 255 255 255 256 255 256 256 256 256 257 256
287 288 288 288 288 289 289 290 290 289 284 277 274 269 267 267 269 267 266 261 266 261 259 260 259 265 262 269 270 267 268 264 260 257 258 252 252 251 254 255 254 253 253 253 253 253 254 254 255 255 256 256 256 256
287 287 287 287 288 289 289 290 291 286 280 275 273 265 267 270 263 260 260 262 262 265 267 265 261 269 259 265 267 263 261 257 258 257 250 251 253 253 253 253 252 252 252 252 253 253 254 254 254 255 257 258 257 257
286 286 283 288 289 289 289 289 286 283 278 274 270 267 256 262 260 258 257 256 261 264 263 263 262 263 262 260 261 261 257 256 256 243 248 252 251 251 251 251 251 252 252 252 253 253 253 254 255 256 257 257 257 258
285 278 287 288 289 289 289 281 279 274 272 268 254 253 255 254 255 251 253 257 262 258 256 261 260 261 265 261 257 250 252 246 247 249 247 248 249 250 251 250 251 251 252 253 253 254 254 256 257 256 255 255 256 257
276 280 286 288 285 284 279 276 272 269 258 256 257 250 253 253 250 248 249 257 257 257 255 257 258 257 258 255 252 245 247 248 250 247 249 250 247 248 249 249 251 252 253 253 254 254 257 256 255 255 255 256 256 256
281 283 288 286 283 275 271 270 267 255 253 253 256 254 253 251 255 255 251 254 252 256 256 254 254 253 248 245 243 243 242 242 245 248 250 248 247 247 249 251 253 253 253 254 255 256 257 257 256 256 256 256 255 256
284 284 283 281 280 269 263 264 262 256 252 254 254 252 254 252 251 246 245 248 251 253 252 250 244 245 248 246 246 246 247 248 246 247 248 249 249 251 253 254 254 254 254 255 256 257 256 256 257 257 256 256 255 255
276 277 278 272 266 262 260 260 258 253 255 251 252 251 248 249 245 244 245 249 250 247 246 244 246 246 244 244 245 242 246 246 247 248 249 250 253 254 255 255 254 254 253 254 255 255 256 255 257 257 256 256 256 256
272 274 266 269 263 258 258 260 259 258 253 250 249 250 244 243 243 244 247 246 245 243 244 244 244 244 242 242 244 244 247 246 248 252 254 253 252 253 254 253 252 251 252 253 254 254 255 256 256 257 257 257 257 257
268 267 262 260 259 256 252 256 252 253 249 248 247 246 246 246 246 249 246 242 241 242 243 243 243 241 244 246 248 250 251 251 251 252 251 252 253 254 255 254 253 251 250 252 254 254 254 255 255 255 256 256 256 255
262 255 252 251 251 247 250 248 253 250 250 250 247 246 247 247 251 248 245 240 245 243 245 245 245 248 251 251 250 251 251 253 253 252 252 251 251 252 253 253 253 251 251 251 253 253 253 252 253 253 252 253 252 252
254 246 248 244 248 247 245 244 246 248 245 246 247 247 248 249 249 246 246 245 244 245 248 250 250 251 249 250 252 253 253 252 252 252 252 252 251 252 252 253 253 251 251 250 250 250 251 251 251 250 249 248 248 247
242 241 242 242 245 244 245 242 242 244 245 245 246 246 247 249 248 247 245 246 247 250 249 250 249 250 251 251 251 252 252 253 252 252 253 252 251 250 250 249 249 251 251 249 248 248 249 249 249 247 246 245 245 244
241 240 242 242 244 247 243 243 243 244 243 243 242 247 248 247 244 247 248 249 249 249 251 252 251 251 252 252 253 253 253 253 252 253 253 252 251 250 249 247 248 249 250 248 246 245 247 246 246 243 241 242 240 240
242 239 242 241 240 239 238 238 239 240 241 243 242 245 246 246 246 248 249 250 250 252 251 252 253 253 253 253 253 253 252 250 252 251 250 250 250 250 249 248 248 254 250 247 247 248 247 244 241 240 240 240 240 238
240 238 240 239 239 240 239 239 239 238 240 238 242 243 244 245 245 246 248 250 250 251 250 251 252 252 252 251 251 250 249 247 248 248 247 248 248 250 249 248 247 247 245 242 249 253 253 251 246 242 241 240 241 237
240 237 241 239 241 241 240 238 237 236 237 239 239 244 244 244 246 245 248 249 250 250 252 251 250 249 248 247 247 249 246 247 248 248 246 246 248 247 243 245 246 245 242 239 245 244 248 244 245 241 242 242 240 241
236 235 239 238 240 237 236 233 232 234 235 234 233 238 239 239 242 241 245 245 243 241 243 244 242 239 242 242 241 240 246 245 245 247 247 246 245 244 246 246 246 244 241 241 241 240 243 243 241 242 242 242 243 243
234 235 239 242 240 236 233 233 233 235 234 235 236 232 237 238 240 244 243 243 241 242 246 243 242 249 246 248 243 244 248 246 243 246 246 247 247 248 248 248 246 243 242 244 244 244 245 245 245 245 245 244 244 244
232 231 231 235 238 238 235 235 235 237 235 234 235 232 232 237 243 245 244 243 246 249 249 249 249 248 246 246 247 248 248 248 247 253 254 254 252 252 250 249 247 246 246 247 248 248 247 246 246 246 245 245 245 245
Wind_Speed
21 21 20 21 20 20 25 23 22 21 18 17 18 15 16 17 18 8 4 6 6 4 7 6 7 5 1 3 4 5 5 5 2 4 3 2 3 2 5 9 12 7 6 6 8 15 25 20 10 12 15 16 13 16
21 22 22 21 22 22 22 23 22 20 19 19 17 17 18 17 18 14 4 4 5 6 5 2 8 15 13 14 5 5 7 6 4 2 2 3 6 6 13 11 9 8 3 5 6 10 22 9 16 5 4 6 9 12
23 21 22 22 22 21 23 23 23 22 20 19 20 19 19 20 18 16 4 4 2 5 9 11 13 17 12 11 14 8 3 7 5 5 5 4 4 4 2 6 6 6 11 7 13 9 20 21 15 12 16 15 13 7
23 22 21 22 22 21 22 22 22 23 23 22 20 21 19 20 19 17 4 4 3 3 5 9 3 8 13 13 15 15 18 6 1 3 3 4 4 5 4 6 6 8 12 6 13 16 14 12 10 13 14 8 13 15
25 25 23 23 21 22 21 22 22 21 22 22 23 21 21 21 20 11 4 5 7 6 3 3 2 7 5 7 13 15 15 13 4 2 3 4 4 4 7 7 10 12 15 12 16 19 9 17 12 9 6 9 11 13
24 24 25 24 23 22 21 23 23 21 21 21 21 20 20 20 18 3 3 4 11 10 6 5 5 5 12 17 18 13 12 9 5 5 4 4 9 5 5 5 11 14 18 15 16 6 8 13 10 4 13 13 12 13
24 23 23 23 23 24 22 21 22 21 21 21 21 22 21 20 7 5 6 4 4 7 6 5 4 5 6 5 3 3 5 5 5 5 7 10 8 8 8 13 18 20 17 5 1 5 11 1 9 17 14 17 18 18
25 22 22 22 24 23 23 20 21 21 21 21 21 21 19 20 16 10 8 17 5 3 3 4 3 1 3 3 3 4 4 3 5 6 1 6 2 3 8 12 18 15 3 6 1 5 9 15 15 15 14 13 18 20
24 24 22 22 22 22 22 19 21 20 19 19 17 15 5 1 3 7 18 22 8 9 4 5 6 6 2 2 2 2 2 3 1 4 5 4 3 7 10 16 12 5 3 8 9 8 9 8 15 15 15 15 16 20
23 24 22 20 22 22 20 20 20 18 18 18 5 3 3 5 4 2 3 4 8 5 5 4 3 2 4 2 1 1 3 4 4 6 2 5 10 15 7 10 8 8 8 10 9 9 12 17 13 19 17 15 16 19
21 24 21 21 22 21 20 20 18 17 15 3 4 5 4 6 3 1 5 4 2 2 2 5 5 6 3 4 6 4 3 2 3 8 7 2 4 2 9 9 9 10 9 9 8 12 12 15 18 20 23 19 18 19
22 22 21 21 21 21 21 20 20 10 3 5 5 3 2 4 4 5 3 1 2 7 3 4 4 4 2 3 4 2 4 2 6 1 5 3 5 6 9 9 11 11 11 12 10 13 16 18 17 19 19 20 20 20
19 21 21 21 21 21 21 21 21 19 11 3 3 3 3 3 4 7 7 4 1 3 3 1 1 3 3 2 1 2 5 7 2 2 6 4 4 6 7 8 10 10 11 13 14 13 14 17 17 17 20 18 19 19
17 17 18 19 20 20 21 18 21 13 5 4 5 7 6 4 3 3 4 4 1 1 2 3 1 4 3 2 3 4 5 3 3 3 8 1 3 6 7 8 10 15 13 14 15 15 16 16 16 16 16 16 17 17
15 16 18 18 20 19 17 17 15 6 3 3 4 6 4 3 3 2 2 3 2 3 3 3 3 1 1 1 4 1 2 5 7 6 0 4 7 8 10 10 11 13 13 14 13 14 16 16 16 16 15 14 15 15
15 14 9 17 18 18 16 14 5 3 3 2 3 4 2 4 1 3 3 2 3 2 2 1 2 1 5 4 3 7 5 7 4 3 4 6 8 8 9 10 11 13 13 14 13 14 14 15 15 16 15 12 12 13
6 4 8 12 15 16 13 3 4 4 3 4 1 3 2 4 3 2 0 1 4 2 3 2 4 10 2 3 4 2 5 1 3 5 3 5 8 11 11 11 11 12 13 13 13 13 13 13 12 11 11 12 11 9
1 5 14 13 3 9 2 6 5 5 6 3 2 2 3 2 3 2 2 2 2 1 2 3 1 2 5 5 5 3 1 2 3 3 6 8 6 8 8 11 12 12 12 12 12 11 11 10 10 7 9 10 8 7
3 3 14 10 4 4 5 4 4 6 2 2 3 2 3 2 2 2 2 3 1 1 1 2 2 4 3 1 3 3 3 3 3 5 6 7 7 8 10 10 10 9 11 11 11 8 7 9 6 6 6 6 5 5
20 21 17 18 7 5 7 5 5 6 3 2 3 2 3 2 1 2 3 3 2 1 3 2 2 3 2 2 3 3 3 3 2 5 6 5 4 6 9 9 8 10 8 9 7 9 7 6 5 5 5 5 5 5
11 11 15 9 6 8 5 3 5 3 3 4 2 3 1 3 3 3 2 2 4 2 1 2 2 2 2 3 2 2 3 2 3 3 5 6 8 7 7 7 8 6 6 7 8 8 8 7 6 5 5 5 5 5
4 12 4 8 6 5 6 5 4 2 4 3 3 3 3 2 1 2 2 4 1 3 3 3 2 2 2 3 4 4 4 2 4 3 5 5 4 6 7 7 7 7 7 8 8 8 8 8 8 6 6 6 6 6
8 6 6 7 7 9 3 3 5 4 5 1 3 4 3 2 2 1 2 2 4 3 3 3 4 4 4 4 1 2 2 3 1 2 3 3 4 4 4 5 6 7 8 8 8 8 8 12 10 8 7 7 7 7
11 9 8 6 6 2 3 5 3 4 4 3 3 2 1 1 1 3 2 3 3 1 1 1 0 2 1 2 1 1 2 2 1 2 3 3 3 4 5 4 4 5 5 6 7 7 8 8 10 8 8 8 8 7
10 11 6 7 5 6 6 5 5 4 2 2 3 1 1 1 1 1 3 3 1 2 2 1 1 1 2 1 0 0 1 2 2 2 2 2 3 3 3 3 1 4 5 6 8 8 8 7 7 7 8 8 8 8
11 5 5 2 3 5 1 3 1 2 1 2 0 2 1 1 1 4 3 3 3 3 3 3 3 2 1 1 1 0 1 1 2 2 2 1 1 2 3 4 4 2 5 4 4 5 7 7 7 8 6 7 8 6
6 3 3 1 1 2 4 2 1 3 2 2 2 1 1 2 4 4 1 2 3 3 3 3 2 2 2 1 2 2 2 2 3 4 1 3 3 3 2 1 3 3 4 4 4 3 5 6 5 5 4 4 2 2
3 2 3 3 3 1 4 2 2 2 2 1 3 2 3 5 4 2 3 2 3 3 2 2 2 2 2 2 2 2 3 2 5 2 1 2 3 3 4 3 3 8 4 3 4 5 3 3 3 3 3 3 3 2
3 3 2 3 2 3 2 4 4 3 3 3 3 3 4 3 3 2 2 2 2 3 2 2 2 2 2 2 2 2 2 1 2 2 1 3 3 3 3 3 3 3 2 3 7 7 8 5 3 4 5 4 4 3
3 1 3 2 3 1 3 3 2 3 1 2 1 3 3 4 4 1 2 2 3 4 4 3 2 3 3 1 3 4 2 4 5 4 4 4 5 3 2 4 5 4 2 2 5 5 7 4 5 4 4 4 3 4
0 3 3 1 2 3 3 2 2 1 2 1 1 3 4 5 6 3 4 4 3 2 3 2 3 3 3 4 4 2 5 3 6 8 6 4 4 5 6 6 5 4 3 4 4 3 3 3 3 5 6 7 8 6
3 2 2 1 3 3 4 3 1 1 3 2 3 2 4 4 4 4 3 4 3 3 6 4 4 7 7 6 3 4 6 3 4 6 8 6 7 8 7 6 5 3 4 5 5 5 6 8 7 7 7 9 9 9
2 2 1 2 4 4 4 3 4 4 2 2 3 2 3 3 6 5 3 4 5 6 6 7 7 5 6 7 7 6 7 6 7 10 12 13 13 12 7 6 5 5 7 7 7 8 9 10 10 10 9 9 10 9
Wind_Direction
275 277 271 280 277 277 284 273 272 267 267 264 267 264 270 262 257 250 230 200 214 262 260 218 200 183 224 143 170 254 14 318 309 220 196 264 288 357 329 338 310 280 323 297 311 262 266 24 19 17 299 304 340 333
271 273 279 283 277 273 272 270 273 270 265 260 262 272 268 266 261 255 226 204 216 226 272 251 242 246 223 228 206 218 202 176 225 77 359 17 321 307 295 278 297 293 14 303 319 320 315 287 314 297 286 282 307 315
270 274 273 280 282 275 270 278 269 267 264 264 264 262 269 270 272 256 217 192 189 242 264 239 235 236 241 227 211 223 251 221 227 168 177 210 220 126 210 260 275 279 283 290 321 283 299 305 317 347 352 338 336 332
267 266 272 275 273 278 276 275 273 272 258 262 264 266 268 268 265 258 204 190 181 234 244 266 293 230 230 221 214 221 245 247 204 127 177 178 197 195 225 233 231 253 296 262 272 278 284 285 316 341 322 347 338 324
260 264 265 268 273 275 275 279 276 270 273 265 265 262 265 265 263 259 210 204 206 221 259 257 195 222 219 212 209 207 213 229 205 153 182 218 232 216 239 262 255 255 261 268 275 292 302 301 324 317 1 319 312 311
263 262 261 264 270 271 274 274 273 271 267 265 265 263 261 256 255 108 326 237 204 192 245 252 258 224 232 219 220 222 221 224 191 187 212 216 231 228 233 219 243 245 247 258 281 327 280 273 284 300 331 318 312 299
263 264 266 263 264 273 274 276 275 272 271 266 267 265 261 252 231 193 195 195 11 204 214 232 252 278 220 179 197 200 187 204 198 222 230 237 245 247 253 260 266 257 270 289 280 319 285 256 305 315 320 320 318 307
258 262 265 259 259 269 270 268 272 271 269 272 270 263 253 254 264 254 243 248 197 271 254 227 221 349 172 194 214 182 193 181 211 220 227 223 236 217 247 246 257 271 266 276 106 338 291 295 303 306 320 319 315 309
254 261 264 267 262 264 268 270 271 269 269 270 264 261 282 243 195 233 237 233 211 210 233 203 159 233 22 246 224 6 129 207 246 224 226 137 211 223 227 259 281 53 3 324 325 305 290 301 304 304 312 313 304 300
255 262 264 260 259 258 263 267 268 267 269 263 242 153 258 214 229 156 101 197 199 207 218 189 120 188 134 125 124 208 204 215 207 241 85 191 239 250 4 62 60 43 27 6 351 341 330 313 311 308 309 303 295 295
255 259 258 256 257 260 264 264 260 260 266 177 196 188 233 149 67 195 239 185 151 326 210 216 176 168 223 142 203 217 172 200 218 259 147 270 279 225 54 46 26 10 359 345 321 298 298 290 296 300 300 299 296 292
260 259 256 254 257 261 261 255 257 245 206 193 179 120 151 197 189 196 210 44 172 217 283 151 214 171 256 119 114 267 184 102 237 145 103 260 238 43 16 356 347 340 326 310 298 293 293 291 290 289 289 290 292 292
265 261 261 262 262 257 255 251 250 239 180 161 103 164 155 217 213 177 179 259 256 224 213 108 271 148 6 53 142 129 218 223 80 79 215 221 57 3 344 328 321 319 309 302 299 291 287 286 283 283 290 290 292 293
268 266 263 262 258 256 250 248 244 230 196 148 170 194 181 197 223 182 180 181 294 330 68 100 54 155 196 148 196 235 229 104 217 211 231 77 330 301 312 317 317 315 309 300 301 300 294 294 295 295 288 290 294 294
267 269 273 268 256 250 246 244 219 195 106 170 153 195 185 113 77 185 153 100 345 289 27 36 15 78 300 242 207 89 320 242 208 224 122 290 308 303 311 313 305 304 306 305 303 302 301 302 300 299 300 301 301 300
264 284 264 249 236 231 236 209 178 107 103 135 67 123 321 74 5 41 19 70 334 349 357 59 144 140 237 182 165 220 153 221 238 234 250 298 299 303 302 301 296 293 292 293 294 297 298 300 302 306 308 311 308 310
265 230 257 254 248 248 177 95 81 60 67 86 51 23 83 74 116 169 133 339 326 58 175 157 166 214 342 241 228 2 221 185 238 291 256 265 289 301 299 297 294 294 294 296 301 299 297 298 307 311 317 320 319 332
192 282 291 274 73 124 16 46 87 74 72 21 99 291 47 60 100 354 300 344 357 57 77 204 41 189 211 209 251 227 290 263 268 261 281 291 279 281 285 292 296 299 302 305 302 297 305 317 324 322 320 327 332 342
150 332 91 79 104 90 85 37 49 96 103 111 82 57 82 110 48 48 30 354 358 328 21 57 180 216 216 184 181 246 260 225 277 294 285 279 277 285 294 296 297 313 315 312 312 319 321 324 313 326 332 338 340 349
55 52 55 44 44 62 59 25 62 82 103 163 63 55 76 88 190 48 11 7 39 40 49 80 192 201 176 218 196 217 228 239 275 302 304 307 295 306 318 323 330 322 319 321 330 341 338 337 348 354 352 355 353 5
27 355 13 39 47 56 79 39 54 115 102 86 190 84 96 33 34 30 349 319 55 45 148 212 191 241 244 248 253 214 264 209 225 214 281 305 325 321 328 344 338 332 338 339 348 345 356 356 353 356 1 9 10 12
16 14 41 16 68 48 72 17 90 110 78 170 53 73 66 48 344 299 231 56 137 227 185 172 223 214 322 294 269 220 240 266 263 275 308 312 314 336 351 353 347 350 353 352 346 354 357 355 358 6 13 17 24 33
24 30 48 15 72 40 325 14 72 12 92 264 37 54 16 24 246 358 55 210 241 236 194 185 223 208 202 269 350 348 299 324 340 356 338 328 313 326 337 4 8 7 354 352 352 360 1 2 4 10 13 20 22 30
28 44 33 44 43 76 14 23 23 54 51 49 73 75 355 219 316 57 240 256 244 280 69 271 155 10 26 28 54 343 328 329 2 25 8 356 351 339 346 352 22 11 353 321 351 359 5 8 5 12 14 21 26 30
72 352 32 13 4 53 43 19 3 51 81 334 96 126 276 50 153 233 230 255 219 211 208 206 148 121 147 245 192 102 100 27 9 353 356 352 322 317 347 336 22 48 3 357 2 0 359 0 6 11 17 22 20 19
69 309 69 359 352 81 32 77 50 165 68 69 205 261 45 109 188 242 228 196 190 173 181 173 165 150 157 179 232 342 321 306 298 258 195 162 31 21 346 347 343 328 21 1 337 334 346 356 2 4 6 8 11 13
73 346 321 324 101 78 47 24 42 87 87 156 261 357 159 219 244 248 239 219 159 197 158 157 154 158 174 212 240 234 250 248 241 261 267 202 199 194 169 224 311 280 319 328 320 304 321 327 337 339 330 324 316 344
132 64 94 299 47 28 127 77 96 171 216 293 65 184 196 202 240 233 207 226 155 134 137 167 180 185 210 241 249 269 285 293 299 291 308 266 220 212 218 238 248 291 303 283 289 291 287 256 268 287 297 293 288 281
44 314 85 26 19 39 161 158 208 236 197 113 159 252 254 241 230 209 238 187 148 133 151 194 239 189 259 277 266 241 211 163 54 29 317 284 317 290 210 231 272 279 269 287 301 315 300 270 257 238 254 258 275 279
321 26 78 49 98 261 250 162 218 260 271 187 237 303 297 280 253 249 143 136 176 200 205 190 183 160 220 207 292 307 255 191 194 175 191 234 231 237 241 268 276 271 258 255 275 295 307 357 336 352 344 328 322 309
346 43 61 78 201 247 235 268 318 4 24 7 320 166 251 296 305 256 195 187 167 124 121 226 261 218 195 228 208 258 296 256 214 228 237 256 270 268 264 257 247 231 221 230 240 242 267 288 261 282 287 284 282 271
17 93 126 42 293 292 18 48 359 69 330 24 289 340 320 356 291 282 229 123 118 201 224 185 203 249 210 233 217 233 231 256 220 226 234 241 250 255 259 262 258 226 242 255 247 246 244 249 262 257 262 267 265 263
38 36 62 26 3 359 326 48 21 338 2 317 273 212 223 193 244 274 295 210 190 202 212 213 225 235 217 222 229 240 230 241 252 258 257 251 251 258 260 250 241 230 237 246 247 244 245 244 253 255 249 252 260 260